User: anonymous   Login
Location: Caltech
(34.1382°N, 118.1253°W)
Time: 15:28:57
(UTC-07:00)
Language:

Cosmos 1975 - Orbit

View from above orbital plane
View from above orbital plane
View from above satellite
View from above satellite

Ground track
Ground track

The orbit data is extracted from the following two-line orbital elements,

1 19573U 88093A   15184.94730139  .00000989  00000-0  71839-4 0  9996
2 19573 082.5219 315.8833 0014257 203.2574 156.8008 15.02745130452486
Epoch (UTC): 03 July 2015 22:44:06
Eccentricity: 0.0014257
inclination: 82.5219°
perigee height: 548 km
apogee height: 568 km
right ascension of ascending node: 315.8833°
argument of perigee: 203.2574°
revolutions per day: 15.02745130
mean anomaly at epoch: 156.8008°
orbit number at epoch: 45248

The dashed part of the orbit path shows where the satellite is in the earth's shadow,  

DLR